JF7ELG-13 Weather Reports


time (UTC)temp
C
wind
direction
speed
KPH
gust
KPH
rain 1hr
cm
rain 24hr
cm
rain mn
cm
humidity
%
barometer
mb
20260510033337 21 333 4.8 8.0 0.00 0.00 0.00 38 1015.8
20260510031834 22 294 3.2 6.4 0.00 0.00 0.00 39 1015.8
20260510030328 21 60 1.6 6.4 0.00 0.00 0.00 35 1015.9
20260510024823 22 53 0.0 3.2 0.00 0.00 0.00 35 1015.8
20260510023328 22 4 0.0 3.2 0.00 0.00 0.00 36 1016.0
20260510021828 22 276 1.6 3.2 0.00 0.00 0.00 36 1016.1
20260510020332 22 92 0.0 6.4 0.00 0.00 0.00 33 1016.3
20260510014825 22 119 1.6 6.4 0.00 0.00 0.00 34 1016.4
20260510013329 22 93 0.0 6.4 0.00 0.00 0.00 31 1016.4
20260510011847 24 91 0.0 1.6 0.00 0.00 0.00 29 1016.6
20260510010328 22 95 0.0 1.6 0.00 0.00 0.00 32 1016.7
20260510004822 21 80 0.0 8.0 0.00 0.00 0.00 34 1016.5
20260510003348 21 93 1.6 6.4 0.00 0.00 0.00 35 1016.7
20260510001827 21 79 3.2 6.4 0.00 0.00 0.00 34 1016.8
20260510000328 20 105 1.6 6.4 0.00 0.00 0.00 37 1017.0
20260509234818 19 75 4.8 8.0 0.00 0.00 0.00 39 1016.9
20260509233321 19 106 0.0 4.8 0.00 0.00 0.00 43 1016.9
20260509231839 18 105 0.0 3.2 0.00 0.00 0.00 48 1016.9
20260509230331 17 86 1.6 6.4 0.00 0.00 0.00 52 1016.8
20260509224826 17 89 1.6 4.8 0.00 0.00 0.00 56 1017.0
20260509223326 16 93 1.6 4.8 0.00 0.00 0.00 58 1017.1
20260509221822 16 93 1.6 4.8 0.00 0.00 0.00 59 1017.0
20260509220322 15 86 0.0 1.6 0.00 0.00 0.00 63 1017.2
20260509214816 15 77 0.0 1.6 0.00 0.00 0.00 64 1017.2
20260509213333 14 77 0.0 1.6 0.00 0.00 0.00 66 1017.1
20260509211824 13 94 0.0 1.6 0.00 0.00 0.00 66 1017.0
20260509210321 12 85 0.0 1.6 0.00 0.00 0.00 70 1016.8
20260509204835 9 94 0.0 1.6 0.00 0.00 0.00 83 1016.6
20260509203334 8 80 0.0 0.0 0.00 0.00 0.00 83 1016.3
20260509201828 8 83 0.0 1.6 0.00 0.00 0.00 83 1016.0
20260509200333 8 101 0.0 0.0 0.00 0.00 0.00 82 1015.8
20260509194827 8 101 0.0 0.0 0.00 0.00 0.00 79 1015.5
20260509193324 10 108 0.0 1.6 0.00 0.00 0.00 75 1015.4
20260509191820 10 108 0.0 3.2 0.00 0.00 0.00 75 1015.1
20260509190323 10 104 0.0 4.8 0.00 0.00 0.00 75 1015.0
20260509184817 8 96 0.0 1.6 0.00 0.00 0.00 81 1014.9
20260509183321 7 94 0.0 0.0 0.00 0.00 0.00 85 1014.9
20260509181834 7 86 0.0 0.0 0.00 0.00 0.00 82 1014.6
20260509180316 9 86 0.0 0.0 0.00 0.00 0.00 78 1014.4
20260509174834 10 104 0.0 1.6 0.00 0.00 0.00 75 1014.3
20260509173330 10 89 0.0 1.6 0.00 0.00 0.00 77 1014.2
20260509171827 8 99 0.0 1.6 0.00 0.00 0.00 81 1014.2
20260509170325 7 98 0.0 1.6 0.00 0.00 0.00 86 1014.1
20260509164821 7 97 0.0 0.0 0.00 0.00 0.00 87 1014.0
20260509163327 7 97 0.0 0.0 0.00 0.00 0.00 88 1013.9
20260509161830 7 97 0.0 0.0 0.00 0.00 0.00 87 1013.8
20260509160329 7 96 0.0 0.0 0.00 0.00 0.00 85 1013.8
20260509154823 7 97 0.0 0.0 0.00 0.00 0.00 84 1013.5
20260509153325 8 97 0.0 0.0 0.00 0.00 0.00 84 1013.5
20260509151838 8 97 0.0 1.6 0.00 0.00 0.00 83 1013.4
20260509150341 8 105 0.0 1.6 0.00 0.00 0.00 82 1013.3
20260509144828 8 97 0.0 0.0 0.00 0.00 0.00 83 1013.3
20260509143327 8 97 0.0 1.6 0.00 0.00 0.00 82 1013.3
20260509141817 9 101 0.0 1.6 0.00 0.00 0.00 80 1013.1
20260509140337 10 101 0.0 0.0 0.00 0.00 0.00 78 1013.1
20260509134833 10 103 0.0 3.2 0.00 0.10 0.00 76 1013.0
20260509133332 11 106 0.0 1.6 0.00 0.10 0.00 71 1012.8
20260509131829 12 90 0.0 3.2 0.00 0.10 0.00 68 1012.5
20260509130331 12 93 0.0 0.0 0.00 0.10 0.00 67 1012.6
20260509124847 12 93 0.0 1.6 0.00 0.10 0.00 63 1012.4
20260509123337 12 63 0.0 0.0 0.00 0.10 0.00 62 1012.2
20260509121855 13 91 0.0 1.6 0.00 0.10 0.00 58 1012.1
20260509120334 13 96 0.0 1.6 0.00 0.10 0.00 59 1011.8
20260509114829 14 89 0.0 1.6 0.00 0.20 0.00 55 1011.6
20260509113332 15 115 0.0 4.8 0.00 0.20 0.00 53 1011.5
20260509111827 15 106 0.0 3.2 0.00 0.20 0.00 54 1011.2
20260509110332 14 112 0.0 4.8 0.00 0.20 0.00 56 1011.0
20260509104823 14 99 0.0 3.2 0.00 1.09 0.00 57 1011.0
20260509103344 14 96 0.0 1.6 0.00 1.09 0.00 57 1010.9
20260509101817 15 97 0.0 1.6 0.00 1.09 0.00 53 1010.7
20260509100339 15 104 0.0 1.6 0.00 1.09 0.00 53 1010.4
20260509094819 15 77 0.0 1.6 0.00 1.30 0.00 52 1009.9
20260509093322 16 98 0.0 4.8 0.00 1.30 0.00 49 1009.7
20260509091817 16 107 0.0 1.6 0.00 1.30 0.00 45 1009.3
20260509090341 17 103 0.0 6.4 0.00 1.30 0.00 42 1008.9
20260509084834 17 104 0.0 3.2 0.00 1.30 0.00 40 1008.6
20260509083319 18 112 1.6 8.0 0.00 1.30 0.00 39 1008.4
20260509081823 18 82 1.6 6.4 0.00 1.30 0.00 38 1008.2
20260509080326 18 112 0.0 8.0 0.00 1.30 0.00 38 1007.6
20260509074844 19 91 0.0 4.8 0.00 1.30 0.00 38 1007.2
20260509073326 20 115 1.6 8.0 0.00 1.30 0.00 34 1007.0
20260509071821 19 104 0.0 8.0 0.00 1.30 0.00 37 1007.1
20260509070328 19 118 1.6 9.7 0.00 1.30 0.00 38 1006.9
20260509064830 19 113 1.6 12.9 0.00 1.30 0.00 39 1006.7
20260509063332 20 98 3.2 9.7 0.00 1.30 0.00 37 1006.4
20260509061825 20 89 1.6 6.4 0.00 1.30 0.00 40 1006.1
20260509060328 19 82 1.6 9.7 0.00 1.30 0.00 42 1006.0
20260509054830 19 112 1.6 11.3 0.00 1.30 0.00 45 1005.9
20260509053355 18 115 3.2 14.5 0.00 1.30 0.00 45 1006.0
20260509051854 18 166 3.2 11.3 0.00 1.30 0.00 46 1005.9
20260509050316 18 141 6.4 12.9 0.00 1.30 0.00 45 1005.9
20260509044818 19 86 3.2 11.3 0.00 1.30 0.00 42 1005.6
20260509043344 20 120 6.4 12.9 0.00 1.30 0.00 40 1005.5
20260509041841 19 124 6.4 11.3 0.00 1.30 0.00 45 1005.7
20260509040347 19 108 3.2 12.9 0.00 1.30 0.00 46 1005.9
20260509034827 20 110 1.6 6.4 0.00 1.30 0.00 42 1005.6